Andalusia, AL

3:30 PM CDT on June 26, 2017 (GMT -0500)
Andalusia

Weather History for K79J - March, 2013

Change the Weather History Date:

Monday, March 11, 2013

  Actual Average (KCEW) Record (KCEW)
Temperature  
Mean Temperature 60 °F -  
Max Temperature 69 °F 70 °F 84 °F (1997)
Min Temperature 48 °F 41 °F 27 °F (1991)
Degree Days  
Heating Degree Days 6    
Growing Degree Days 10 (Base 50)    
Moisture  
Dew Point 53 °F    
Average Humidity 82    
Maximum Humidity 88    
Minimum Humidity 68    
Precipitation  
Precipitation 1.19 in - - ()
Sea Level Pressure  
Sea Level Pressure 29.89 in    
Wind  
Wind Speed 8 mph (North)    
Max Wind Speed 24 mph    
Max Gust Speed 36 mph    
Visibility 6 miles    
Events Fog , Rain , Thunderstorm    
Averages and records for this station are not official NWS values.
T = Trace of Precipitation, MM = Missing Value Source: NWS Daily Summary

Daily Weather History Graph

Daily Weather History Graph

Search for Another Location

Airport or City:

Trip Planner

Search our weather history database for the weather conditions in past years. The results will help you decide how hot, cold, wet, or windy it might be!

Date:

Astronomy

Mar. 11, 2013 Rise Set
Actual Time 7:00 AM CDT 6:51 PM CDT
Civil Twilight 6:36 AM CDT 7:15 PM CDT
Nautical Twilight 6:07 AM CDT 7:43 PM CDT
Astronomical Twilight 5:39 AM CDT 8:11 PM CDT
Moon 6:35 AM CDT (3/11) 6:58 PM CDT (3/11)
Length of Visible Light 12h 39m
Length of Day
11h 50m
Waning Crescent, 0% of the Moon is Illuminated
Mar 11
Waning Crescent
Mar 11
New
Mar 19
First Quarter
Mar 27
Full
Apr 2
Last Quarter

Hourly Weather History & Observations

Time (CDT) Temp. Dew Point Humidity Pressure Visibility Wind Dir Wind Speed Gust Speed Precip Events Conditions
12:56 AM 59.0 °F 50.0 °F 72% 29.98 in 10.0 mi SSE 5.8 mph - N/A   Clear
1:56 AM 59.0 °F 51.1 °F 75% 29.95 in 10.0 mi SSE 8.1 mph - N/A   Clear
2:56 AM 60.1 °F 53.1 °F 78% 29.94 in 10.0 mi South 6.9 mph - N/A   Clear
3:06 AM 59.0 °F 53.6 °F 82% 29.96 in 9.0 mi South 4.6 mph - N/A   Scattered Clouds
3:14 AM 60.8 °F 53.6 °F 77% 29.95 in 9.0 mi South 3.5 mph - N/A   Mostly Cloudy
3:56 AM 59.0 °F 54.0 °F 83% 29.95 in 9.0 mi Variable 3.5 mph - N/A   Overcast
4:21 AM 59.0 °F 53.6 °F 82% 29.95 in 8.0 mi SE 5.8 mph - N/A   Overcast
4:56 AM 60.1 °F 54.0 °F 80% 29.94 in 5.0 mi SE 6.9 mph - N/A   Haze
5:09 AM 60.8 °F 55.4 °F 82% 29.95 in 2.5 mi SSE 6.9 mph - N/A   Haze
5:48 AM 60.8 °F 55.4 °F 82% 29.94 in 3.0 mi SSE 9.2 mph - N/A   Haze
5:56 AM 60.1 °F 55.0 °F 83% 29.94 in 3.0 mi SSE 10.4 mph - N/A   Haze
6:15 AM 60.8 °F 55.4 °F 82% 29.94 in 2.5 mi SSE 8.1 mph - N/A   Overcast
6:24 AM 60.8 °F 55.4 °F 82% 29.95 in 3.0 mi South 6.9 mph - N/A   Overcast
6:43 AM 60.8 °F 55.4 °F 82% 29.95 in 6.0 mi South 6.9 mph - N/A   Haze
6:56 AM 61.0 °F 55.9 °F 83% 29.94 in 7.0 mi South 5.8 mph - N/A   Overcast
7:30 AM 60.8 °F 55.4 °F 82% 29.95 in 9.0 mi South 9.2 mph - N/A   Overcast
7:56 AM 61.0 °F 54.0 °F 78% 29.94 in 10.0 mi South 8.1 mph - N/A   Overcast
8:56 AM 62.1 °F 54.0 °F 75% 29.92 in 10.0 mi SSE 8.1 mph - N/A   Overcast
9:56 AM 64.0 °F 55.0 °F 73% 29.91 in 10.0 mi South 6.9 mph - N/A   Overcast
10:38 AM 64.4 °F 55.4 °F 73% 29.91 in 10.0 mi South 10.4 mph - N/A   Overcast
10:47 AM 66.2 °F 57.2 °F 73% 29.90 in 10.0 mi South 11.5 mph 18.4 mph N/A   Overcast
10:56 AM 66.0 °F 57.0 °F 73% 29.88 in 10.0 mi South 8.1 mph 18.4 mph N/A   Overcast
11:16 AM 66.2 °F 57.2 °F 73% 29.89 in 10.0 mi South 12.7 mph 19.6 mph N/A   Overcast
11:56 AM 69.1 °F 57.9 °F 68% 29.85 in 9.0 mi South 12.7 mph 20.7 mph 0.00 in Rain Light Rain
12:56 PM 68.0 °F 60.1 °F 76% 29.90 in 1.8 mi NW 21.9 mph 35.7 mph 0.05 in Rain Heavy Rain
12:59 PM 64.4 °F 57.2 °F 77% 29.91 in 1.0 mi NNW 24.2 mph 35.7 mph 0.03 in Rain Heavy Rain
1:04 PM 60.8 °F 53.6 °F 77% 29.90 in 0.5 mi North 15.0 mph 35.7 mph 0.21 in Rain Heavy Rain
1:14 PM 57.2 °F 53.6 °F 88% 29.88 in 1.0 mi North 11.5 mph 23.0 mph 0.30 in Rain Heavy Rain
1:25 PM 57.2 °F 53.6 °F 88% 29.87 in 1.2 mi North 10.4 mph 19.6 mph 0.36 in Rain Heavy Rain
1:28 PM 57.2 °F 53.6 °F 88% 29.87 in 2.0 mi North 10.4 mph - 0.37 in Rain Rain
1:38 PM 59.0 °F 53.6 °F 82% 29.87 in 6.0 mi North 11.5 mph - 0.37 in Rain Light Rain
1:45 PM 57.2 °F 53.6 °F 88% 29.88 in 8.0 mi NNW 8.1 mph - 0.37 in Rain , Thunderstorm Light Thunderstorms and Rain
1:56 PM 57.9 °F 53.1 °F 84% 29.87 in 1.5 mi North 9.2 mph - 0.42 in Rain , Thunderstorm Heavy Thunderstorms and Rain
2:01 PM 57.2 °F 53.6 °F 88% 29.89 in 1.5 mi NNW 10.4 mph - 0.02 in Rain Heavy Rain
2:06 PM 57.2 °F 53.6 °F 88% 29.88 in 1.2 mi NNW 9.2 mph - 0.05 in Rain Heavy Rain
2:21 PM 57.2 °F 53.6 °F 88% 29.86 in 2.0 mi North 5.8 mph - 0.11 in Rain Rain
2:31 PM 57.2 °F 53.6 °F 88% 29.86 in 3.0 mi North 8.1 mph 16.1 mph 0.13 in Rain Rain
2:37 PM 57.2 °F 53.6 °F 88% 29.87 in 4.0 mi NNW 8.1 mph - 0.14 in Rain Light Rain
2:45 PM 57.2 °F 53.6 °F 88% 29.88 in 1.8 mi NNW 10.4 mph - 0.18 in Rain Heavy Rain
2:48 PM 57.2 °F 53.6 °F 88% 29.87 in 1.2 mi North 9.2 mph - 0.20 in Rain Heavy Rain
2:51 PM 57.2 °F 53.6 °F 88% 29.87 in 1.0 mi North 10.4 mph - 0.22 in Rain Heavy Rain
2:56 PM 57.0 °F 52.0 °F 83% 29.85 in 1.2 mi North 9.2 mph - 0.26 in Rain Heavy Rain
3:09 PM 57.2 °F 53.6 °F 88% 29.86 in 1.0 mi NNE 9.2 mph - 0.09 in Rain Heavy Rain
3:16 PM 57.2 °F 53.6 °F 88% 29.84 in 1.5 mi NNE 6.9 mph - 0.12 in Rain Heavy Rain
3:19 PM 57.2 °F 51.8 °F 82% 29.84 in 2.0 mi NNE 8.1 mph - 0.13 in Rain Rain
3:24 PM 57.2 °F 51.8 °F 82% 29.84 in 3.0 mi NNE 6.9 mph - 0.14 in Rain Heavy Rain
3:35 PM 57.2 °F 51.8 °F 82% 29.87 in 2.5 mi NNW 4.6 mph - 0.16 in Rain Light Rain
3:37 PM 57.2 °F 51.8 °F 82% 29.86 in 1.0 mi NNW 3.5 mph - 0.19 in Rain Heavy Rain
3:42 PM 57.2 °F 53.6 °F 88% 29.85 in 0.5 mi North 3.5 mph - 0.25 in Fog , Rain Heavy Rain
3:49 PM 57.2 °F 53.6 °F 88% 29.83 in 1.0 mi NE 4.6 mph - 0.27 in Rain Heavy Rain
3:53 PM 57.2 °F 53.6 °F 88% 29.84 in 2.5 mi Calm Calm - 0.28 in Rain Light Rain
3:56 PM 57.0 °F 53.1 °F 87% 29.84 in 4.0 mi Calm Calm - 0.28 in Rain Light Rain
4:04 PM 57.2 °F 51.8 °F 82% 29.83 in 1.8 mi East 4.6 mph - 0.05 in Rain Heavy Rain
4:12 PM 57.2 °F 51.8 °F 82% 29.82 in 1.2 mi ESE 6.9 mph - 0.09 in Rain Heavy Rain
4:20 PM 57.2 °F 53.6 °F 88% 29.83 in 2.0 mi ENE 3.5 mph - 0.11 in Rain Rain
4:33 PM 57.2 °F 53.6 °F 88% 29.84 in 1.8 mi North 5.8 mph - 0.15 in Rain Rain
4:41 PM 57.2 °F 53.6 °F 88% 29.85 in 1.2 mi North 5.8 mph - 0.18 in Rain Rain
4:45 PM 57.2 °F 53.6 °F 88% 29.85 in 2.0 mi North 5.8 mph - 0.18 in Rain Light Rain
4:53 PM 57.2 °F 51.8 °F 82% 29.85 in 9.0 mi North 8.1 mph - 0.18 in Rain Light Rain
4:56 PM 57.0 °F 53.1 °F 87% 29.84 in 10.0 mi North 6.9 mph - 0.18 in Rain Light Rain
5:18 PM 57.2 °F 51.8 °F 82% 29.84 in 10.0 mi North 9.2 mph - N/A   Overcast
5:54 PM 57.2 °F 51.8 °F 82% 29.85 in 10.0 mi North 9.2 mph - N/A   Overcast
5:56 PM 57.0 °F 51.1 °F 81% 29.85 in 10.0 mi North 8.1 mph - N/A   Overcast
6:13 PM 57.2 °F 51.8 °F 82% 29.85 in 10.0 mi North 4.6 mph - N/A   Overcast
6:36 PM 55.4 °F 51.8 °F 88% 29.85 in 10.0 mi North 5.8 mph - N/A   Overcast
6:56 PM 55.9 °F 51.1 °F 84% 29.85 in 10.0 mi NNW 9.2 mph - N/A   Overcast
7:10 PM 55.4 °F 50.0 °F 82% 29.86 in 10.0 mi North 9.2 mph - N/A   Overcast
7:27 PM 55.4 °F 50.0 °F 82% 29.87 in 10.0 mi NNW 13.8 mph - N/A   Overcast
7:56 PM 54.0 °F 48.9 °F 83% 29.88 in 10.0 mi North 6.9 mph 18.4 mph N/A   Overcast
8:56 PM 53.1 °F 46.9 °F 80% 29.90 in 10.0 mi North 11.5 mph - N/A   Overcast
9:21 PM 51.8 °F 46.4 °F 82% 29.91 in 10.0 mi NNW 11.5 mph - N/A   Overcast
9:52 PM 51.8 °F 44.6 °F 76% 29.91 in 10.0 mi North 11.5 mph - N/A   Overcast
9:56 PM 52.0 °F 45.0 °F 77% 29.91 in 10.0 mi North 13.8 mph - N/A   Overcast
10:56 PM 50.0 °F 43.0 °F 77% 29.93 in 10.0 mi North 8.1 mph - N/A   Mostly Cloudy
11:56 PM 48.9 °F 42.1 °F 77% 29.94 in 10.0 mi North 9.2 mph - N/A   Clear